When you browse on this site, cookies collect data to enhance your experience and personalize the content and advertising you see.
Visit our Privacy Policy to learn more. By continuing to use the site, you agree to this use of cookies and data.
  • En España
  • Lista de países
  • Para 7 días
  • Temperatura del agua
  • El tiempo en el mapa
  • Informadores
  • user-avatar
    Iniciar sesión

    Tiempo cada hora Tonhe

    Hoy, 5 Junio, Viernes

    Tiempo Temperatura Precipitaciones Viento Presión Humedad
    00:00 +21°C° 0 mm 2 mps 745 mmHg 93%
    01:00 +21°C° 0 mm 2 mps 745 mmHg 94%
    02:00 +20°C° 0 mm 2 mps 745 mmHg 94%
    03:00 +19°C° 0 mm 3 mps 745 mmHg 94%
    04:00 +19°C° 0 mm 3 mps 746 mmHg 94%
    05:00 +19°C° 0 mm 3 mps 746 mmHg 93%
    06:00 +19°C° 0 mm 3 mps 746 mmHg 93%
    07:00 +21°C° 0 mm 3 mps 746 mmHg 82%
    08:00 +24°C° 0 mm 3 mps 747 mmHg 72%
    09:00 +26°C° 0 mm 3 mps 747 mmHg 61%
    10:00 +27°C° 0 mm 3 mps 747 mmHg 57%
    11:00 +28°C° 0 mm 3 mps 748 mmHg 54%
    12:00 +28°C° 0 mm 3 mps 748 mmHg 51%
    13:00 +28°C° 0 mm 2 mps 747 mmHg 52%
    14:00 +28°C° 0 mm 2 mps 747 mmHg 53%
    15:00 +28°C° 0 mm 2 mps 746 mmHg 54%
    16:00 +27°C° 0 mm 2 mps 747 mmHg 60%
    17:00 +25°C° 0 mm 2 mps 747 mmHg 67%
    18:00 +24°C° 0 mm 2 mps 747 mmHg 73%
    19:00 +22°C° 0 mm 1 mps 747 mmHg 80%
    20:00 +20°C° 0 mm 1 mps 748 mmHg 86%
    21:00 +19°C° 0 mm 1 mps 748 mmHg 92%
    22:00 +19°C° 0 mm 1 mps 748 mmHg 91%
    23:00 +19°C° 0 mm 1 mps 749 mmHg 90%

    Mañana, 6 Junio, Sábado

    Tiempo Temperatura Precipitaciones Viento Presión Humedad
    00:00 +18°C° 0 mm 2 mps 749 mmHg 89%
    01:00 +19°C° 0 mm 1 mps 749 mmHg 89%
    02:00 +18°C° 0 mm 1 mps 749 mmHg 90%
    03:00 +16°C° 0 mm 0 mps 748 mmHg 91%
    04:00 +16°C° 0 mm 0 mps 749 mmHg 91%
    05:00 +16°C° 0 mm 0 mps 749 mmHg 91%
    06:00 +16°C° 0 mm 0 mps 749 mmHg 92%
    07:00 +21°C° 0 mm 1 mps 749 mmHg 83%
    08:00 +23°C° 0 mm 1 mps 749 mmHg 74%
    09:00 +25°C° 0 mm 2 mps 749 mmHg 65%
    10:00 +25°C° 0 mm 2 mps 749 mmHg 65%
    11:00 +26°C° 0 mm 2 mps 750 mmHg 64%
    12:00 +26°C° 0 mm 2 mps 750 mmHg 64%
    13:00 +26°C° 0.1 mm 2 mps 749 mmHg 65%
    14:00 +26°C° 0.1 mm 3 mps 749 mmHg 67%
    15:00 +26°C° 0.1 mm 3 mps 749 mmHg 68%
    16:00 +25°C° 0.1 mm 3 mps 749 mmHg 71%
    17:00 +24°C° 0.1 mm 3 mps 749 mmHg 74%
    18:00 +23°C° 0.1 mm 2 mps 749 mmHg 76%
    19:00 +21°C° 0 mm 2 mps 749 mmHg 82%
    20:00 +19°C° 0 mm 2 mps 750 mmHg 87%
    21:00 +18°C° 0 mm 2 mps 750 mmHg 93%
    22:00 +18°C° 0 mm 2 mps 750 mmHg 91%
    23:00 +17°C° 0 mm 3 mps 750 mmHg 89%

    Pasado mañana, 7 Junio, Domingo

    Tiempo Temperatura Precipitaciones Viento Presión Humedad
    00:00 +17°C° 0 mm 3 mps 751 mmHg 86%
    01:00 +17°C° 0 mm 3 mps 751 mmHg 84%
    02:00 +17°C° 0 mm 3 mps 750 mmHg 81%
    03:00 +17°C° 0 mm 3 mps 750 mmHg 78%
    04:00 +17°C° 0 mm 3 mps 750 mmHg 78%
    05:00 +18°C° 0 mm 3 mps 751 mmHg 78%
    06:00 +18°C° 0 mm 3 mps 751 mmHg 79%
    07:00 +21°C° 0 mm 3 mps 751 mmHg 70%
    08:00 +25°C° 0 mm 2 mps 751 mmHg 61%
    09:00 +28°C° 0 mm 2 mps 751 mmHg 53%
    10:00 +29°C° 0 mm 3 mps 751 mmHg 49%
    11:00 +30°C° 0 mm 4 mps 751 mmHg 46%
    12:00 +32°C° 0 mm 4 mps 751 mmHg 42%
    13:00 +32°C° 0 mm 5 mps 750 mmHg 43%
    14:00 +32°C° 0 mm 5 mps 750 mmHg 43%
    15:00 +32°C° 0 mm 5 mps 750 mmHg 44%
    16:00 +30°C° 0 mm 5 mps 750 mmHg 49%
    17:00 +29°C° 0 mm 5 mps 750 mmHg 55%
    18:00 +28°C° 0 mm 5 mps 750 mmHg 61%
    19:00 +26°C° 0 mm 5 mps 750 mmHg 65%
    20:00 +23°C° 0 mm 5 mps 750 mmHg 69%
    21:00 +22°C° 0 mm 6 mps 750 mmHg 73%
    22:00 +21°C° 0 mm 5 mps 750 mmHg 73%
    23:00 +21°C° 0 mm 5 mps 751 mmHg 72%

    8 Junio, Lunes

    Tiempo Temperatura Precipitaciones Viento Presión Humedad
    00:00 +20°C° 0 mm 4 mps 751 mmHg 72%
    01:00 +20°C° 0 mm 4 mps 751 mmHg 72%
    02:00 +20°C° 0 mm 4 mps 751 mmHg 72%
    03:00 +19°C° 0 mm 3 mps 751 mmHg 72%
    04:00 +19°C° 0 mm 3 mps 751 mmHg 72%
    05:00 +19°C° 0 mm 3 mps 751 mmHg 72%
    06:00 +19°C° 0 mm 3 mps 752 mmHg 72%
    07:00 +23°C° 0 mm 2 mps 752 mmHg 63%
    08:00 +26°C° 0 mm 2 mps 752 mmHg 54%
    09:00 +29°C° 0 mm 1 mps 752 mmHg 44%
    10:00 +31°C° 0 mm 1 mps 752 mmHg 42%
    11:00 +34°C° 0 mm 2 mps 752 mmHg 39%
    12:00 +36°C° 0 mm 2 mps 752 mmHg 37%
    13:00 +36°C° 0 mm 3 mps 752 mmHg 38%
    14:00 +36°C° 0 mm 3 mps 751 mmHg 38%
    15:00 +36°C° 0 mm 3 mps 751 mmHg 39%
    16:00 +34°C° 0 mm 3 mps 751 mmHg 46%
    17:00 +33°C° 0 mm 4 mps 751 mmHg 53%
    18:00 +32°C° 0 mm 4 mps 751 mmHg 60%
    19:00 +29°C° 0 mm 4 mps 751 mmHg 64%
    20:00 +28°C° 0 mm 4 mps 751 mmHg 68%
    21:00 +26°C° 0 mm 4 mps 752 mmHg 73%
    22:00 +25°C° 0 mm 4 mps 752 mmHg 73%
    23:00 +25°C° 0 mm 3 mps 752 mmHg 73%

    9 Junio, Martes

    Tiempo Temperatura Precipitaciones Viento Presión Humedad
    00:00 +24°C° 0 mm 3 mps 752 mmHg 73%
    01:00 +24°C° 0 mm 3 mps 752 mmHg 73%
    02:00 +24°C° 0 mm 2 mps 752 mmHg 73%
    03:00 +23°C° 0 mm 2 mps 752 mmHg 73%
    04:00 +23°C° 0 mm 2 mps 752 mmHg 73%
    05:00 +23°C° 0 mm 2 mps 752 mmHg 74%
    06:00 +23°C° 0 mm 2 mps 752 mmHg 74%
    07:00 +26°C° 0 mm 2 mps 752 mmHg 65%
    08:00 +29°C° 0 mm 2 mps 753 mmHg 55%
    09:00 +32°C° 0 mm 2 mps 753 mmHg 45%
    10:00 +35°C° 0 mm 2 mps 753 mmHg 42%
    11:00 +36°C° 0 mm 3 mps 752 mmHg 39%
    12:00 +38°C° 0 mm 3 mps 752 mmHg 36%
    13:00 +38°C° 0 mm 3 mps 752 mmHg 36%
    14:00 +38°C° 0 mm 4 mps 751 mmHg 36%
    15:00 +38°C° 0 mm 4 mps 751 mmHg 36%
    16:00 +36°C° 0 mm 4 mps 751 mmHg 41%
    17:00 +35°C° 0 mm 4 mps 751 mmHg 46%
    18:00 +34°C° 0 mm 3 mps 750 mmHg 51%
    19:00 +30°C° 0 mm 3 mps 751 mmHg 57%
    20:00 +28°C° 0 mm 3 mps 751 mmHg 62%
    21:00 +26°C° 0 mm 3 mps 752 mmHg 68%
    22:00 +25°C° 0 mm 3 mps 752 mmHg 69%
    23:00 +25°C° 0 mm 3 mps 752 mmHg 70%

    10 Junio, Miércoles

    Tiempo Temperatura Precipitaciones Viento Presión Humedad
    00:00 +24°C° 0 mm 3 mps 752 mmHg 71%
    01:00 +22°C° 0 mm 3 mps 752 mmHg 72%
    02:00 +22°C° 0 mm 3 mps 752 mmHg 73%
    03:00 +21°C° 0 mm 3 mps 752 mmHg 74%
    04:00 +22°C° 0 mm 3 mps 752 mmHg 73%
    05:00 +22°C° 0 mm 3 mps 752 mmHg 72%
    06:00 +22°C° 0 mm 3 mps 752 mmHg 71%
    07:00 +26°C° 0 mm 3 mps 751 mmHg 67%
    08:00 +28°C° 0 mm 3 mps 751 mmHg 63%
    09:00 +31°C° 0 mm 3 mps 751 mmHg 58%
    10:00 +32°C° 0.4 mm 4 mps 751 mmHg 61%
    11:00 +32°C° 0.4 mm 5 mps 750 mmHg 64%
    12:00 +32°C° 0.4 mm 5 mps 750 mmHg 66%
    13:00 +30°C° 0.7 mm 5 mps 750 mmHg 71%
    14:00 +29°C° 0.7 mm 4 mps 749 mmHg 75%
    15:00 +28°C° 0.7 mm 4 mps 749 mmHg 80%
    16:00 +27°C° 1.7 mm 4 mps 748 mmHg 86%
    17:00 +25°C° 1.7 mm 4 mps 748 mmHg 92%
    18:00 +23°C° 1.7 mm 4 mps 748 mmHg 97%
    19:00 +24°C° 3.8 mm 3 mps 748 mmHg 98%
    20:00 +24°C° 3.8 mm 2 mps 747 mmHg 98%
    21:00 +24°C° 3.8 mm 1 mps 747 mmHg 99%
    22:00 +24°C° 1 mm 3 mps 747 mmHg 98%
    23:00 +23°C° 1 mm 4 mps 747 mmHg 97%
    Mostrar más